Dewpoint
24 23 22 22 22 21 21 22 22 22 22 22 22 23 23 23 23 23 24 23 22 22 22 22 22 22 24 26 28 29 30 30 30 30 31 31 31 31 32 32 33 33 33 34 34 34 34 34 34 35 35 35 35 35 35 35 36 36 37 37 38 38 38 39 39 39 40 40 40 40 40 40 40 40 40 40 40 40 40 40 40 40 40 40 40 40
23 23 22 22 22 21 20 21 22 22 22 22 22 23 23 22 22 22 22 22 22 22 22 22 22 22 23 25 27 28 29 29 29 29 30 31 31 31 32 32 33 33 33 33 34 34 34 34 34 34 35 35 35 35 35 35 35 36 36 37 37 38 38 38 38 39 39 39 39 39 39 39 39 39 39 40 40 40 40 40 40 40 40 40 40 41
23 23 22 22 22 21 20 21 22 22 23 23 23 23 23 22 22 22 22 21 22 22 22 22 22 22 23 24 26 27 27 28 28 29 30 30 31 31 32 32 32 33 33 33 33 33 33 33 34 34 34 34 35 35 35 35 35 35 36 36 36 37 37 37 37 38 38 38 38 38 38 38 38 38 39 39 40 40 40 40 40 40 40 40 40 41
23 22 22 22 22 21 21 21 22 23 24 24 24 24 23 22 22 22 22 21 22 22 22 22 22 22 22 22 24 26 26 27 28 28 29 30 31 31 31 32 32 32 32 33 33 33 33 33 33 34 34 34 34 34 35 35 35 35 35 35 36 36 36 36 36 37 37 37 37 37 37 37 37 38 38 39 39 39 40 40 40 40 40 40 40 40
23 22 22 22 21 21 22 22 23 24 24 25 24 23 23 22 22 22 22 22 22 22 22 22 22 21 21 20 22 24 26 26 27 28 29 30 30 31 31 31 31 31 32 32 33 33 33 33 33 33 34 34 34 34 34 34 35 35 35 35 35 35 35 35 35 35 35 35 35 36 36 36 36 37 37 37 38 38 39 39 39 39 39 39 40 40
23 22 22 22 22 22 22 23 24 24 24 24 24 23 23 23 23 23 23 23 23 23 23 22 22 20 19 19 21 23 25 26 27 27 28 29 29 30 30 31 31 31 31 32 32 32 33 33 33 33 33 34 34 34 34 34 34 34 35 35 35 35 35 35 35 35 35 35 35 35 35 35 35 36 36 36 37 37 38 38 38 38 39 39 39 40
23 23 23 22 22 23 23 24 24 24 24 23 23 23 23 23 24 24 24 24 24 23 23 22 21 19 17 18 20 22 24 25 26 26 27 28 28 29 29 30 30 31 31 31 32 32 32 32 33 33 33 33 33 34 34 34 34 34 34 34 34 34 34 34 34 34 34 34 34 34 34 35 35 35 35 35 36 36 37 37 38 38 38 39 39 39
23 23 23 23 23 23 24 24 24 24 24 23 23 22 22 22 23 24 25 25 24 23 21 20 19 18 17 17 18 20 21 22 22 23 24 25 26 27 28 29 29 30 31 31 31 31 32 32 32 32 33 33 33 33 33 33 33 33 33 33 33 33 33 33 33 33 33 33 33 33 34 34 34 34 35 35 35 35 36 36 37 37 38 38 38 39
23 22 23 23 23 23 23 24 24 25 25 24 23 22 22 22 22 23 24 24 23 22 19 18 17 17 17 17 18 19 20 21 21 21 22 23 24 25 27 28 29 30 30 31 31 31 31 31 32 32 32 32 32 33 33 32 32 32 32 32 32 32 32 32 32 33 33 33 33 33 33 33 34 34 34 34 35 35 35 35 36 37 38 38 38 39
24 23 23 24 25 25 25 24 24 25 26 25 24 24 23 23 22 22 22 21 20 20 18 18 17 17 18 19 19 20 21 22 23 24 25 25 25 26 27 27 28 28 30 30 30 31 31 31 31 31 31 31 32 32 32 31 31 31 31 31 31 31 31 32 32 32 32 32 33 33 33 33 34 34 34 34 35 35 35 35 36 37 37 38 39 39
24 25 25 25 25 26 26 25 25 25 26 25 24 24 24 23 22 21 19 18 18 18 18 18 18 18 18 19 19 20 21 22 23 25 26 26 27 27 27 27 27 28 28 29 29 29 29 30 30 30 30 30 31 31 31 30 30 31 31 31 31 31 31 31 31 32 32 32 33 33 33 34 34 34 35 35 35 35 35 36 36 37 37 38 39 39
24 25 25 25 25 25 25 25 25 25 25 24 23 23 22 22 22 21 19 18 18 18 18 18 19 20 20 20 20 21 22 22 22 22 23 24 25 25 24 24 25 26 26 27 27 27 28 28 28 28 29 29 29 29 29 29 29 30 30 30 30 30 31 31 31 32 32 32 33 33 34 34 34 35 35 35 35 35 36 36 36 37 37 38 38 38
25 25 25 25 25 24 24 23 23 22 22 22 22 21 21 21 21 21 20 19 18 18 18 18 19 20 22 22 22 22 22 22 22 22 22 22 22 22 22 22 22 22 23 23 23 24 26 26 27 27 27 27 28 28 28 28 29 29 29 29 30 30 31 31 31 31 32 32 33 33 34 34 34 35 35 35 35 35 35 36 36 36 36 37 37 38
25 25 25 25 24 24 23 22 21 21 21 21 21 21 21 20 20 20 19 18 18 18 18 19 19 20 21 22 22 22 22 22 22 21 21 22 22 22 22 21 21 21 21 21 21 22 24 25 25 25 26 26 26 27 27 27 28 28 29 29 30 30 31 31 31 32 32 32 33 33 33 34 34 34 35 35 35 35 35 35 36 36 36 36 37 37
25 25 25 24 23 22 22 21 21 21 22 22 21 21 21 20 20 19 18 17 18 18 19 19 20 20 21 22 22 23 22 22 21 21 21 21 22 23 23 22 21 21 21 20 21 22 24 24 23 22 23 24 24 25 26 26 27 29 29 30 30 31 31 31 31 31 32 32 32 33 33 33 34 34 35 35 35 35 35 36 36 36 36 36 36 37
25 25 24 23 22 22 21 22 22 22 21 21 21 20 20 19 18 18 17 18 18 19 20 20 20 20 20 22 22 22 22 22 21 20 20 20 21 22 22 22 21 20 20 20 21 22 23 22 22 21 22 23 25 26 26 27 28 29 29 30 30 31 31 31 31 31 31 32 32 32 33 33 33 34 34 35 35 35 35 35 36 36 36 36 36 36
25 24 24 23 22 22 22 22 21 21 21 20 20 20 19 19 19 19 19 19 20 20 20 20 20 20 20 21 22 22 22 22 21 21 20 20 20 22 23 22 21 20 20 20 20 20 21 21 21 22 22 24 26 27 27 28 29 29 30 30 30 31 31 31 31 31 31 31 32 32 32 32 33 33 33 34 34 35 35 35 35 36 36 36 36 36
25 25 24 23 23 22 21 21 20 20 21 19 19 19 19 20 20 20 20 21 21 21 21 21 21 21 20 20 21 22 22 22 21 21 20 20 20 22 23 22 21 20 20 20 20 20 20 21 22 22 23 26 27 27 28 29 29 29 30 30 30 30 30 31 31 31 31 31 31 32 32 32 32 33 33 33 33 34 34 35 35 35 35 36 36 36
25 24 23 22 22 21 20 20 19 19 19 19 19 19 20 20 21 21 21 22 22 22 22 22 22 22 21 20 21 22 22 22 21 21 20 20 20 20 21 21 20 20 19 20 20 21 21 22 25 26 26 27 27 28 28 28 29 29 29 30 30 30 30 30 31 31 31 31 31 31 32 32 32 32 33 33 33 33 34 34 34 34 35 35 35 35
24 23 22 22 21 20 20 20 20 20 20 20 21 21 21 21 22 22 22 23 23 23 24 23 23 22 22 21 21 22 22 22 22 21 20 20 20 20 20 20 19 19 18 19 19 20 20 22 24 25 26 26 27 27 28 28 28 29 29 29 30 30 30 30 31 31 31 31 31 31 31 31 32 32 32 32 32 33 33 33 34 34 34 35 35 35
23 22 22 22 21 21 20 20 21 22 22 24 23 23 22 22 22 23 23 24 24 25 25 24 23 23 22 21 21 22 23 22 21 21 20 20 19 19 20 19 19 18 18 19 19 20 20 22 22 22 24 26 26 27 27 28 28 29 29 29 29 30 30 30 30 31 31 31 31 31 31 31 31 31 31 32 32 32 33 33 33 34 34 34 35 35
23 22 22 22 22 22 22 22 23 24 25 26 25 24 23 23 24 24 25 25 25 25 25 24 24 23 22 22 22 22 23 22 22 21 21 20 19 19 19 19 19 18 18 18 19 20 21 21 21 22 23 26 26 27 27 28 28 29 29 29 29 30 30 30 30 30 30 31 31 31 31 31 31 31 31 31 31 32 32 32 33 33 34 34 34 34
24 23 23 23 23 23 24 24 25 25 25 26 25 25 25 26 26 26 26 26 26 26 25 24 23 23 22 22 22 22 22 22 22 22 21 20 19 18 19 19 18 18 18 18 18 19 20 19 20 21 23 26 26 27 27 28 28 28 29 29 29 29 29 30 30 30 30 30 30 31 31 31 31 31 31 31 31 31 31 32 32 32 32 33 33 33
24 24 24 24 25 26 26 25 26 26 27 27 28 28 30 30 29 29 28 27 26 25 23 23 22 22 22 22 22 21 22 22 22 21 20 19 18 18 18 18 18 18 18 18 19 19 20 19 19 20 22 24 26 26 27 27 28 28 28 29 29 29 29 29 29 29 30 30 30 30 31 31 31 31 31 31 31 31 31 31 31 31 32 32 32 33
24 24 24 25 27 29 29 29 29 30 31 31 31 31 30 28 27 26 24 23 23 23 22 22 21 21 21 21 21 20 20 21 21 21 20 19 18 18 18 18 18 18 18 19 19 19 19 19 19 20 21 23 25 26 27 27 27 28 28 28 28 29 29 29 29 29 29 30 30 30 30 31 31 31 31 31 31 31 31 31 31 31 31 32 32 33
26 26 26 27 28 29 30 30 31 31 31 28 26 25 24 24 24 23 23 23 22 22 21 21 20 20 20 20 20 20 20 21 21 21 20 19 19 19 19 19 18 18 18 19 20 20 19 19 19 20 20 22 23 25 26 27 27 27 27 28 28 28 28 29 29 29 29 30 30 30 30 30 30 31 31 31 31 31 31 31 31 31 31 32 32 32
27 28 28 28 28 28 28 28 28 28 28 27 27 26 26 24 23 22 22 21 21 21 21 20 19 19 19 19 19 19 20 20 20 20 20 19 19 19 19 19 19 18 18 19 20 21 21 20 20 20 20 20 22 23 25 26 26 26 27 27 27 28 28 28 29 29 29 29 29 30 30 30 30 30 30 30 31 31 31 31 31 31 31 31 31 31
27 27 27 27 27 27 27 27 27 27 28 28 28 27 26 24 22 22 21 21 21 21 21 20 19 18 18 18 18 19 19 20 20 20 20 19 19 19 19 19 19 18 18 19 20 22 22 22 21 21 20 20 20 22 24 25 26 26 26 27 27 27 28 28 28 28 28 29 29 29 29 29 30 30 30 30 30 30 31 31 31 31 31 30 29 29
26 26 25 25 26 26 26 26 26 26 26 26 26 26 26 24 22 22 22 22 22 21 21 20 19 18 18 18 18 18 19 19 20 20 20 19 19 19 19 19 19 19 19 19 20 21 21 21 21 21 20 20 20 21 22 23 24 25 26 26 26 27 27 27 27 28 28 28 28 29 29 29 29 30 30 30 30 30 30 30 30 29 29 28 27 27
23 23 22 23 23 23 23 23 23 24 25 25 26 26 25 24 23 22 22 22 22 21 20 19 19 18 18 18 18 18 18 19 20 20 20 19 19 19 19 19 19 20 20 20 19 18 18 19 20 20 20 21 21 21 21 22 22 23 23 25 25 26 26 26 27 27 27 28 28 28 28 29 29 29 29 29 29 30 30 30 29 28 27 26 26 27
21 21 20 20 21 21 21 21 22 22 23 24 24 24 23 23 22 22 22 22 21 20 20 19 19 19 18 18 17 17 17 18 20 20 20 20 19 19 19 20 20 21 21 20 19 17 17 17 19 20 21 21 21 21 22 22 22 22 22 22 23 24 26 26 26 26 27 27 27 28 28 28 28 28 29 29 29 29 29 29 29 28 26 26 26 26
20 20 19 19 19 19 20 20 20 21 21 22 22 22 22 22 22 22 22 22 21 21 20 20 19 19 19 18 18 17 17 19 20 21 21 20 20 20 20 20 21 21 21 21 20 19 17 17 18 19 20 20 20 21 21 22 22 22 22 22 22 23 25 25 26 26 26 26 27 27 27 28 28 28 28 28 29 29 29 29 29 28 26 26 26 26
19 19 19 19 19 19 19 20 20 20 20 20 20 21 21 21 22 22 22 22 21 21 21 20 20 19 19 19 19 18 19 19 21 22 22 21 21 21 21 21 20 20 20 21 20 20 19 18 18 19 19 20 20 20 21 22 22 22 22 22 22 22 24 24 24 24 24 25 26 26 27 27 27 28 28 28 28 29 29 29 29 28 27 26 26 26
19 19 18 19 19 19 19 20 20 20 20 20 20 20 20 20 20 21 21 21 21 21 21 21 20 20 19 19 19 19 19 19 21 22 22 22 22 21 21 21 20 20 20 20 19 19 19 19 19 18 18 19 20 20 21 21 22 22 22 22 22 22 22 23 23 23 24 24 24 25 26 26 26 27 27 27 28 28 28 29 29 29 28 27 27 26
19 19 19 19 19 19 19 19 19 19 19 19 19 19 19 19 19 20 21 21 21 21 21 21 21 20 20 19 19 19 19 19 21 22 23 22 22 22 21 21 20 20 20 19 19 19 18 19 19 19 19 19 19 20 21 21 22 22 22 22 22 22 22 23 23 23 23 24 24 24 24 24 25 26 26 26 27 27 28 29 29 29 29 29 29 28
19 19 19 19 19 19 18 18 18 18 18 18 18 19 19 19 19 19 20 21 21 21 22 22 22 22 22 21 21 20 20 20 22 22 23 23 22 22 22 21 20 20 20 20 19 19 18 19 19 19 19 19 19 19 20 21 22 22 22 22 22 22 23 23 23 23 23 23 23 23 23 24 24 25 25 26 27 28 28 29 29 29 29 30 30 29
19 18 18 18 18 18 18 17 17 17 17 18 18 18 18 18 19 19 20 21 22 22 22 22 22 22 23 22 22 22 22 22 22 23 23 24 23 23 22 21 21 21 21 20 20 19 19 19 19 19 19 18 18 18 19 20 21 21 22 22 22 22 22 23 23 23 23 23 23 24 24 24 24 25 26 26 27 27 28 28 29 29 29 29 29 30
18 18 18 18 18 17 17 17 17 17 18 18 18 18 19 19 19 20 20 21 22 22 22 22 22 22 23 24 24 24 23 23 23 24 25 25 24 23 23 22 22 22 22 22 21 21 20 19 18 18 17 18 18 19 20 20 20 21 21 22 22 22 22 23 23 23 23 24 24 24 25 25 25 25 25 26 26 26 26 26 27 28 28 28 29 29
18 18 18 18 18 17 17 17 17 18 18 18 18 19 19 19 20 20 20 20 21 21 21 21 21 21 23 25 25 25 25 25 26 26 26 26 26 25 24 23 22 22 22 22 22 22 21 20 19 18 18 18 18 19 20 20 20 20 21 21 22 22 22 23 23 23 24 24 24 24 24 24 24 24 24 25 25 25 25 25 26 26 26 26 26 27
18 18 18 18 18 18 18 18 18 18 18 19 19 20 19 19 19 19 19 19 20 20 20 21 21 21 22 23 23 24 25 26 27 27 27 27 27 26 24 23 23 22 22 22 22 22 22 21 20 20 20 19 19 19 20 20 20 21 21 21 21 21 22 23 23 23 23 23 24 24 24 24 24 24 24 24 24 24 24 24 25 25 26 25 25 25
19 18 18 18 18 18 18 18 18 19 19 19 19 19 19 19 18 18 18 19 19 20 20 21 21 21 22 22 22 22 23 25 26 26 27 28 27 27 25 24 23 23 22 22 22 22 22 22 21 20 20 20 20 20 20 20 21 22 22 21 21 21 22 23 23 23 23 24 24 24 24 24 24 24 24 24 24 24 25 25 25 25 25 25 25 24
19 18 18 18 18 18 18 18 19 20 20 19 19 19 18 18 18 18 18 18 19 19 20 20 20 20 20 21 21 22 23 24 25 26 28 28 28 27 26 25 24 23 23 22 22 22 22 22 22 21 21 20 20 20 20 20 21 22 22 22 22 22 22 23 23 23 23 23 23 24 24 24 24 24 24 24 24 25 25 26 26 26 26 25 25 25
19 18 18 18 18 18 19 20 20 20 19 19 18 18 18 18 18 18 19 18 19 19 20 20 20 20 20 20 20 21 23 25 25 25 26 27 28 28 26 25 25 24 23 22 22 22 22 22 22 22 21 21 21 21 20 21 21 21 22 22 22 22 21 22 22 23 23 23 23 24 24 24 24 24 24 24 25 25 26 26 26 27 26 26 25 25
18 18 19 19 19 19 20 20 19 19 18 18 18 18 18 18 19 19 19 19 19 19 19 20 20 20 19 19 20 20 21 22 24 24 25 25 26 27 26 26 25 24 24 23 23 22 22 22 22 22 22 22 22 22 21 21 21 21 21 22 22 22 22 22 22 23 23 23 24 24 24 24 24 24 24 25 25 25 26 26 26 26 26 26 26 26
18 18 19 19 19 19 19 19 18 18 18 18 18 18 18 18 19 19 19 19 19 19 19 20 20 19 19 19 19 20 20 21 22 22 24 24 26 26 26 25 25 24 24 24 24 23 23 22 22 22 22 22 22 22 22 22 21 22 22 22 23 22 22 23 23 23 23 23 23 24 24 25 25 25 24 24 25 25 25 25 25 26 26 26 26 26
19 19 19 19 19 19 19 19 18 18 18 18 18 18 18 19 19 19 19 19 19 19 19 20 19 19 18 18 19 19 19 19 20 21 21 22 23 24 25 25 24 24 24 24 24 24 24 23 23 23 22 22 22 22 22 22 22 22 22 22 22 23 23 23 23 23 23 23 23 24 25 26 25 25 24 25 25 25 25 25 25 26 26 26 26 27
18 18 18 18 18 18 18 18 18 18 18 18 18 18 19 19 19 19 19 19 19 19 20 20 19 19 18 18 18 18 19 19 19 20 21 21 22 22 23 23 24 24 24 24 24 24 24 25 25 24 23 23 22 22 22 22 22 22 22 22 22 22 22 23 23 23 24 24 24 25 26 26 26 25 25 25 25 25 25 25 26 26 26 26 26 27
18 18 18 18 18 18 18 18 18 18 18 18 18 18 19 19 19 19 19 20 20 20 20 19 19 18 18 18 18 19 19 19 19 20 20 21 22 22 22 22 23 23 24 24 24 24 24 25 26 26 25 23 22 22 22 22 22 22 22 23 23 23 23 23 23 24 24 25 26 27 27 26 26 26 25 26 25 25 25 25 26 26 26 26 27 27
18 18 18 18 18 18 18 18 18 18 18 18 18 19 19 20 20 21 20 20 19 19 19 19 18 18 18 18 18 19 20 20 20 20 20 21 21 22 22 22 22 22 22 23 23 23 23 25 25 25 25 24 23 23 22 22 23 23 23 23 23 23 23 23 24 24 24 25 27 28 29 27 26 26 26 26 26 25 25 25 26 26 26 27 27 27
18 18 18 18 18 18 18 18 18 18 19 19 19 19 19 19 19 19 20 19 19 19 19 19 18 18 18 18 18 19 19 19 20 20 20 21 21 22 22 22 22 22 21 22 22 22 22 23 24 24 25 25 25 24 23 23 23 23 23 23 24 24 24 24 24 25 25 25 26 28 29 28 27 27 27 27 26 26 25 25 25 26 26 26 27 27
18 18 18 18 18 18 18 18 18 19 19 19 19 19 19 19 19 19 19 19 19 19 19 19 19 19 18 19 19 19 20 19 20 20 20 21 21 22 22 22 22 21 21 21 20 20 20 20 20 21 22 24 26 26 24 23 23 23 23 23 24 24 24 24 25 25 26 26 26 27 28 28 27 27 27 27 26 26 25 25 25 25 26 26 26 27